This is the latest recevied weather packets stored in our database for station/object UHMA. If no packets are shown the sender has not sent any weather packets the latest 10 day(s).
| Time | Temp. | Humidity | Pressure | Rain* | Wind** | Luminosity | Snow |
|---|---|---|---|---|---|---|---|
| 1777300426 | -3.33° C | 86% | 1003 hPa | - | - | - | - |
| 1777300211 | -3.33° C | 86% | 1003 hPa | - | - | - | - |
| 1777299827 | -3.33° C | 79% | 1000 hPa | - | - | - | - |
| 1777299234 | -2.22° C | 74% | 1000 hPa | - | - | - | - |
| 1777298629 | -2.22° C | 74% | 1004 hPa | - | - | - | - |
| 1777298409 | -2.22° C | 74% | 1004 hPa | - | - | - | - |
| 1777298029 | -3.33° C | 79% | 1003 hPa | - | - | - | - |
| 1777297429 | -3.33° C | 79% | 1003 hPa | - | - | - | - |
| 1777296830 | -3.33° C | 79% | 1003 hPa | - | - | - | - |
| 1777296614 | -3.33° C | 79% | 1003 hPa | - | - | - | - |
| 1777296228 | -3.33° C | 79% | 1003 hPa | - | - | - | - |
| 1777295625 | -3.33° C | 79% | 1003 hPa | - | - | - | - |
| 1777295030 | -4.44° C | 92% | 1003 hPa | - | - | - | - |
| 1777294811 | -3.33° C | 86% | 1002 hPa | - | - | - | - |
| 1777294430 | -3.33° C | 86% | 1002 hPa | - | - | - | - |
| 1777293825 | - | - | 1000 hPa | - | - | - | - |
| 1777293228 | - | - | 1000 hPa | - | - | - | - |
| 1777293009 | -3.33° C | 86% | 1002 hPa | - | - | - | - |
| 1777292630 | -4.44° C | 92% | 1000 hPa | - | - | - | - |
| 1777292026 | -4.44° C | 92% | 1000 hPa | - | - | - | - |
| 1777291426 | -4.44° C | 92% | 1001 hPa | - | - | - | - |
| 1777291208 | -4.44° C | 92% | 1001 hPa | - | - | - | - |
| 1777290828 | -4.44° C | 92% | 1001 hPa | - | - | - | - |
| 1777290227 | -4.44° C | 92% | 1001 hPa | - | - | - | - |
| 1777289632 | -4.44° C | 92% | 1001 hPa | - | - | - | - |
* Rain since midnight (hover to see other rain measurements)
** Current wind speed in m/s (hover to see current wind gust speed)